Regional Weather Roundup
Issued by NWS

Home | Current Version | Previous Version | Graphics & Text | Print | Product List | Glossary On
Versions: 1 2 3 4 5 6 7 8 9 10 11 12 13 14 15 16 17 18 19 20 21 22 23 24 25 26 27 28 29 30 31 32 33 34 35 36 37 38 39 40 41 42 43 44 45 46 47 48 49 50
508
ASUS43 KOAX 221010
RWRNE

WEATHER ROUNDUP FOR NEBRASKA
NATIONAL WEATHER SERVICE OMAHA NE
500 AM CDT SAT JUL 22 2017

NOTES: SATELLITE DATA IS BEING USED TO AUGMENT CLOUD COVER ABOVE
       12000 FEET.
       "FAIR" INDICATES FEW OR NO CLOUDS BELOW 12,000 FEET WITH NO
       SIGNIFICANT WEATHER AND/OR OBSTRUCTIONS TO VISIBILITY.


NEZ001>004-019>022-054>056-221100-
NEBRASKA PANHANDLE

CITY           SKY/WX    TMP DP  RH WIND       PRES   REMARKS
SCOTTSBLUFF    CLOUDY    66  55  67 NW7       30.06F
ALLIANCE       MOCLDY    67  54  63 N5        30.05F
CHADRON        PTCLDY    63  53  70 CALM      30.01S
GORDON         FAIR      69  60  73 S5        30.05R
KIMBALL        PTCLDY    64  58  79 W14       30.10F
SIDNEY         CLOUDY    68  54  60 CALM      30.06R
$$

NEZ057>060-069>072-079>082-221100-
SOUTHWEST NEBRASKA

CITY           SKY/WX    TMP DP  RH WIND       PRES   REMARKS
NORTH PLATTE   CLOUDY    82  53  36 NW14      29.93F
IMPERIAL       CLOUDY    67  61  81 N5        29.95R
LEXINGTON      CLOUDY    75  59  57 N8        29.90S
MCCOOK         PTCLDY    76  56  49 NW7       29.89R
OGALLALA       MOCLDY    76  56  48 NE13      29.97R
$$

NEZ005>010-023>029-035>040-094-221100-
NORTH CENTRAL NEBRASKA

CITY           SKY/WX    TMP DP  RH WIND       PRES   REMARKS
VALENTINE      CLEAR     68  55  63 NW5       29.94S
AINSWORTH      CLEAR     70  61  74 CALM      29.94S
BROKEN BOW     CLOUDY    76  67  73 CALM      29.89S
O`NEILL        CLOUDY    74  74 100 N3        29.89R FOG
ORD            CLOUDY    74  68  81 N14       29.84S
THEDFORD       CLOUDY    76  59  56 NW3       29.98R
$$

NEZ041-046>049-061>064-073>077-083>087-221100-
SOUTH CENTRAL NEBRASKA

CITY           SKY/WX    TMP DP  RH WIND       PRES   REMARKS
GRAND ISLAND   CLOUDY    73  69  87 NW7       29.85R
AURORA         CLOUDY    73  68  87 N8        29.83R
HASTINGS       MOCLDY    75  68  78 W5        29.86R
HEBRON         PTCLDY    77  63  63 S12       29.79F
HOLDREGE       PTCLDY    75  58  54 N9        29.87S
KEARNEY        CLOUDY    76  69  79 N6        29.87S
YORK           CLOUDY    72  70  94 N3        29.82R
$$

NEZ011>018-030>034-042>045-221100-
NORTHEAST NEBRASKA

CITY           SKY/WX    TMP DP  RH WIND       PRES   REMARKS
NORFOLK        FOG       76  75  97 N12       29.84R VSB 1
ALBION         CLOUDY    69  67  92 NW7       29.84R
BLAIR          LGT RAIN  79  78  96 N16       29.78R
COLUMBUS       PTCLDY    75  70  84 N5        29.81R
FREMONT        CLOUDY    78  77  98 N6        29.78R FOG
TEKAMAH        CLOUDY    78  75  90 N10       29.79R FOG
WAYNE          CLOUDY    76  76  99 NE10      29.84F
$$

NEZ050>053-065>068-078-088>093-221100-
SOUTHEAST NEBRASKA

CITY           SKY/WX    TMP DP  RH WIND       PRES   REMARKS
LINCOLN        MOCLDY    80  68  66 W8        29.78S
OMAHA EPPLEY   CLOUDY    80  75  84 N6        29.76R
BEATRICE       CLEAR     79  65  62 S9        29.78S
NEBRASKA CITY  CLEAR     82  68  62 W8        29.77R
PLATTSMOUTH    CLOUDY    78  67  68 SW3       29.76S
$$

NEZ044-045-051>053-067-221100-
OMAHA AREA

CITY           SKY/WX    TMP DP  RH WIND       PRES   REMARKS
OMAHA EPPLEY   CLOUDY    80  75  84 N6        29.76R
BLAIR          LGT RAIN  79  78  96 N16       29.78R
FREMONT        CLOUDY    78  77  98 N6        29.78R FOG
MILLARD        CLOUDY    82  71  67 NW5       29.76R
OFFUTT AFB     MOCLDY    80  67  65 NW6       29.75R
PLATTSMOUTH    CLOUDY    78  67  68 SW3       29.76S
WAHOO          FAIR      77  76  95 N6        29.78R
$$




USA.gov is the U.S. government's official web portal to all federal, state and local government web resources and services.